Morgantown, WV

7:55 AM EDT on March 27, 2017 (GMT -0400)
Morgantown Municipal-Hart

Weather History for KMGW - February, 2003

Change the Weather History Date:

Friday, February 14, 2003

  Actual Average Record
Temperature  
Mean Temperature 25 °F 34 °F  
Max Temperature 35 °F 43 °F 68 °F (1954)
Min Temperature 15 °F 25 °F 4 °F (1979)
Degree Days  
Heating Degree Days 40 31  
Month to date heating degree days 449  
Since 1 July heating degree days 3476  
Cooling Degree Days 0 0  
Month to date cooling degree days 0  
Year to date cooling degree days 0  
Moisture  
Dew Point 18 °F    
Average Humidity 69    
Maximum Humidity 100    
Minimum Humidity 48    
Precipitation  
Precipitation 0.00 in 0.08 in 0.69 in (2000)
Month to date precipitation 1.26  
Year to date precipitation 4.07  
Sea Level Pressure  
Sea Level Pressure 30.15 in    
Wind  
Wind Speed 3 mph (North)    
Max Wind Speed 7 mph    
Max Gust Speed -    
Visibility 8 miles    
Events Snow    
T = Trace of Precipitation, MM = Missing Value Source: NWS Daily Summary

Daily Weather History Graph

Daily Weather History Graph

Search for Another Location

Airport or City:

Trip Planner

Search our weather history database for the weather conditions in past years. The results will help you decide how hot, cold, wet, or windy it might be!

Date:

Astronomy

Feb. 14, 2003 Rise Set
Actual Time 7:13 AM EST 5:54 PM EST
Civil Twilight 6:46 AM EST 6:22 PM EST
Nautical Twilight 6:14 AM EST 6:53 PM EST
Astronomical Twilight 5:43 AM EST 7:25 PM EST
Moon 3:18 PM EST (2/14) 5:55 AM EST (2/14)
Length of Visible Light 11h 36m
Length of Day
10h 40m
Waxing Gibbous, 93% of the Moon is Illuminated
Feb 14
Waxing Gibbous
Feb 16
Full
Feb 23
Last Quarter
Mar 2
New
Mar 11
First Quarter

Hourly Weather History & Observations

Time (EST) Temp. Windchill Dew Point Humidity Pressure Visibility Wind Dir Wind Speed Gust Speed Precip Events Conditions
12:53 AM 24.1 °F 17.0 °F 12.9 °F 62% 30.22 in 10.0 mi SSW 5.8 mph - N/A   Clear
1:53 AM 25.0 °F 20.7 °F 14.0 °F 63% 30.23 in 10.0 mi Variable 3.5 mph - N/A   Clear
2:53 AM 24.1 °F 19.7 °F 14.0 °F 65% 30.22 in 10.0 mi SW 3.5 mph - N/A   Clear
3:53 AM 23.0 °F 14.7 °F 14.0 °F 68% 30.22 in 10.0 mi SW 6.9 mph - N/A   Clear
4:53 AM 18.0 °F 12.7 °F 12.0 °F 78% 30.22 in 10.0 mi SSW 3.5 mph - N/A   Clear
5:53 AM 17.1 °F - 12.0 °F 81% 30.24 in 10.0 mi Calm Calm - N/A   Clear
6:53 AM 15.1 °F 9.4 °F 12.0 °F 88% 30.24 in 10.0 mi East 3.5 mph - N/A   Clear
7:53 AM 15.1 °F - 12.0 °F 88% 30.25 in 9.0 mi Calm Calm - N/A   Mostly Cloudy
8:53 AM 18.0 °F 11.1 °F 12.9 °F 81% 30.23 in 9.0 mi South 4.6 mph - N/A   Clear
9:53 AM 26.1 °F - 15.1 °F 63% 30.22 in 10.0 mi Calm Calm - N/A   Mostly Cloudy
10:53 AM 30.0 °F 24.1 °F 17.1 °F 59% 30.23 in 10.0 mi Variable 5.8 mph - N/A   Mostly Cloudy
11:53 AM 33.1 °F - 17.1 °F 52% 30.21 in 9.0 mi Calm Calm - N/A   Clear
12:53 PM 34.0 °F 29.8 °F 17.1 °F 50% 30.19 in 10.0 mi Variable 4.6 mph - N/A   Clear
1:53 PM 33.1 °F - 17.1 °F 52% 30.17 in 10.0 mi Calm Calm - N/A   Clear
2:53 PM 34.0 °F 29.8 °F 18.0 °F 52% 30.16 in 10.0 mi SW 4.6 mph - N/A   Clear
3:53 PM 35.1 °F - 17.1 °F 48% 30.16 in 10.0 mi Calm Calm - N/A   Scattered Clouds
4:53 PM 35.1 °F - 18.0 °F 50% 30.15 in 10.0 mi Calm Calm - N/A   Mostly Cloudy
5:53 PM 34.0 °F - 18.0 °F 52% 30.12 in 10.0 mi Calm Calm - N/A   Overcast
6:53 PM 33.1 °F 30.0 °F 19.9 °F 59% 30.13 in 10.0 mi NE 3.5 mph - N/A   Overcast
7:53 PM 32.0 °F 28.7 °F 19.0 °F 59% 30.12 in 10.0 mi East 3.5 mph - N/A   Overcast
8:53 PM 32.0 °F 28.7 °F 19.0 °F 59% 30.09 in 10.0 mi North 3.5 mph - N/A   Overcast
9:53 PM 32.0 °F - 19.9 °F 61% 30.09 in 10.0 mi Calm Calm - N/A   Overcast
10:22 PM 30.2 °F - 21.2 °F 69% 30.04 in 2.5 mi Calm Calm - 0.00 in Snow Light Snow
10:53 PM 28.9 °F 23.9 °F 25.0 °F 85% 30.07 in 1.8 mi North 4.6 mph - 0.00 in Snow Light Snow
11:00 PM 28.4 °F 24.6 °F 26.6 °F 93% 30.02 in 1.5 mi NNE 3.5 mph - 0.00 in Snow Light Snow
11:25 PM 28.4 °F 23.3 °F 26.6 °F 93% 30.02 in 1.5 mi North 4.6 mph - 0.00 in Snow Light Snow
11:32 PM 28.4 °F 23.3 °F 26.6 °F 93% 30.01 in 1.5 mi North 4.6 mph - 0.00 in Snow Light Snow
11:53 PM 28.0 °F 22.8 °F 28.0 °F 100% 30.05 in 1.5 mi North 4.6 mph - 0.00 in Snow Light Snow